Regional Weather Roundup
Issued by NWS

Home | Current Version | Previous Version | Text Only | Print | Product List | Glossary On
Versions: 1 2 3 4 5 6 7 8 9 10 11 12 13 14 15 16 17 18 19 20 21 22 23 24 25 26 27 28 29 30 31 32 33 34 35 36 37 38 39 40 41 42 43 44 45 46 47 48 49 50
000
ASUS44 KOUN 220510
RWROK

WEATHER ROUNDUP FOR OKLAHOMA
NATIONAL WEATHER SERVICE NORMAN OK
1200 AM CDT SUN OCT 22 2017

NOTE: "FAIR" INDICATES FEW OR NO CLOUDS BELOW 12,000 FEET WITH NO
      SIGNIFICANT WEATHER AND/OR OBSTRUCTIONS TO VISIBILITY.

OKZ001>007-009>012-014-015-017-220600-
NORTHWEST OKLAHOMA AND THE PANHANDLE

CITY           SKY/WX    TMP DP  RH WIND       PRES   REMARKS
GAGE           PTCLDY    50  36  58 N5        30.08R
GUYMON         CLEAR     44  27  51 NW6       30.12R
ENID/WOODRING  CLOUDY    55  54  94 N16G25    29.97R
$$

OKZ016-021>023-033>039-044-045-220600-
SOUTHWEST OKLAHOMA

CITY           SKY/WX    TMP DP  RH WIND       PRES   REMARKS
LAWTON/REGL    CLOUDY    59  54  83 NE13G22   29.94S
LAWTON/FT SILL MOCLDY    58  55  91 NE14G21   29.92R
CLINTON        CLOUDY    57  40  52 N15       30.04R
HOBART         CLOUDY    58  47  66 N14       30.01R
ALTUS AFB      MOCLDY    59  42  53 N16G24    30.00R
$$

OKZ018>020-024>031-220600-
CENTRAL OKLAHOMA

CITY           SKY/WX    TMP DP  RH WIND       PRES   REMARKS
OKLAHOMA CITY  TSTM      57  54  89 N21       30.03R
OKC/WILEY POST LGT RAIN  58  55  90 N16G25    30.05R
OKC/TINKER AFB TSTM      58  56  93 NW9       30.02R
STILLWATER     TSTM      55  52  89 NE20G31   29.93F
GUTHRIE        CLOUDY    56  53  90 N10G23    29.99R
$$

OKZ008-013-054>072-220600-
NORTHEAST OKLAHOMA

CITY           SKY/WX    TMP DP  RH WIND       PRES   REMARKS
TULSA          RAIN      60  59  96 NW8       29.93S FOG
TULSA/JONES    RAIN      60  58  92 N7        29.95F FOG
PONCA CITY     LGT RAIN  54  50  86 NE17      29.96F
BARTLESVILLE   RAIN      56  54  93 N8G18     29.95R FOG
MUSKOGEE       CLOUDY    59  58  96 MISG      29.93F THUNDER
$$

OKZ032-040>043-046>053-073>077-220600-
SOUTH CENTRAL/SOUTHEAST OKLAHOMA

CITY           SKY/WX    TMP DP  RH WIND       PRES   REMARKS
ARDMORE/DWNTWN LGT RAIN  61  59  94 CALM      29.94F
MCALESTER      TSTM      61  59  93 N12G22    29.97R VSB 3/4
$$




USA.gov is the U.S. government's official web portal to all federal, state and local government web resources and services.